Regional Weather Roundup
Issued by NWS

Home | Current Version | Previous Version | Text Only | Print | Product List | Glossary On
Versions: 1 2 3 4 5 6 7 8 9 10 11 12 13 14 15 16 17 18 19 20 21 22 23 24 25 26 27 28 29 30 31 32 33 34 35 36 37 38 39 40 41 42 43 44 45 46 47 48 49 50
000
ASCA42 TJSJ 190811
RWRPR
PUERTO RICO/U.S. VIRGIN ISLANDS HOURLY WEATHER ROUNDUP
NATIONAL WEATHER SERVICE SAN JUAN PR
400 AM AST FRI DEC 19 2014

PRZ001-004-190900-
PUERTO RICO

CITY           SKY/WX    TMP DP  RH WIND       PRES   REMARKS
SAN JUAN LMM   PTCLDY    73  70  88 CALM      29.93F
PONCE          PTCLDY    72  66  83 NE6       29.92F
CEIBA          MOCLDY    79  66  65 E9G17     29.95F
$$

PRZ006-007-190900-
U.S. VIRGIN ISLANDS

CITY           SKY/WX    TMP DP  RH WIND       PRES   REMARKS
CHARLOTTE AMA  MOCLDY    77  66  69 E7        29.92F
CHRISTIANSTED  MOCLDY    75  68  78 NE9       29.92
$$

HOURLY WEATHER ROUNDUP FOR THE NEWS MEDIA

CITY           SKY/WX    TMP DP  RH WIND       PRES   REMARKS
MIAMI          CLEAR     61  52  72 CALM      30.07F
ORLANDO        MOCLDY    56  50  80 N3        30.11F
NEW YORK       MOCLDY    38  24  57 NW16G22   29.98S WCI  29
NEWARK         PTCLDY    36  25  64 NW8       29.99R WCI  30
CHICAGO        CLOUDY    27  22  81 NW8       30.27R WCI  19
HARTFORD       CLOUDY    34  27  75 W8        29.88R WCI  27
BOSTON         PTCLDY    36  25  64 W8        29.87S WCI  30
DALLAS         CLOUDY    46  43  89 NE8       30.16R
PHILADELPHIA   MOCLDY    37  25  61 W9        30.05R WCI  30


USA.gov is the U.S. government's official web portal to all federal, state and local government web resources and services.